UAE5AM NZAA-OMDB

Flight info

Callsign UAE5AM
Flight time N/A
Altitude 36000
Route PEBLU N759 ML H345 AD A585 SAPDA L896 MMV Q8 AGELA N571 VUSET A454 PASOV B540 MIVEK P574 IMPED
Aircraft A388/J-SADE2E3FGHIJ3J4J5M1RWXY/LB1D1

Departure

Time 2026-05-05 09:14
Airport Auckland International Airport (NZAA)

Arrival

Time N/A
Airport Dubai International Airport (OMDB)
Time Latitude Longitude Altitude Speed Heading
2026-05-05 08:40 -37.00519 174.77790 31 ft 0 kts 341°
2026-05-05 09:01 -37.00536 174.77798 30 ft 3 kts 337°
2026-05-05 09:01 -37.00555 174.77808 30 ft 3 kts 331°
2026-05-05 09:02 -37.00573 174.77822 30 ft 3 kts 324°
2026-05-05 09:02 -37.00590 174.77838 30 ft 3 kts 315°
2026-05-05 09:02 -37.00603 174.77857 30 ft 3 kts 297°
2026-05-05 09:02 -37.00609 174.77879 29 ft 3 kts 261°
2026-05-05 09:03 -37.00611 174.77875 30 ft 2 kts 251°
2026-05-05 09:03 -37.00617 174.77853 30 ft 3 kts 251°
2026-05-05 09:03 -37.00624 174.77828 30 ft 3 kts 251°
2026-05-05 09:03 -37.00631 174.77804 30 ft 3 kts 251°
2026-05-05 09:04 -37.00638 174.77779 30 ft 3 kts 251°
2026-05-05 09:04 -37.00645 174.77754 30 ft 3 kts 251°
2026-05-05 09:04 -37.00651 174.77729 30 ft 3 kts 251°
2026-05-05 09:04 -37.00658 174.77705 30 ft 3 kts 251°
2026-05-05 09:05 -37.00665 174.77680 30 ft 3 kts 251°
2026-05-05 09:05 -37.00672 174.77655 30 ft 3 kts 251°
2026-05-05 09:05 -37.00676 174.77638 30 ft 0 kts 251°
2026-05-05 09:08 -37.00680 174.77625 30 ft 3 kts 252°
2026-05-05 09:08 -37.00690 174.77585 30 ft 5 kts 248°
2026-05-05 09:09 -37.00716 174.77551 30 ft 5 kts 202°
2026-05-05 09:09 -37.00749 174.77549 30 ft 6 kts 172°
2026-05-05 09:09 -37.00789 174.77563 30 ft 7 kts 164°
2026-05-05 09:09 -37.00838 174.77584 30 ft 0 kts 161°
2026-05-05 09:10 -37.00840 174.77585 30 ft 2 kts 161°
2026-05-05 09:10 -37.00860 174.77594 30 ft 4 kts 161°
2026-05-05 09:10 -37.00879 174.77602 30 ft 1 kts 161°
2026-05-05 09:11 -37.00890 174.77607 30 ft 3 kts 161°
2026-05-05 09:11 -37.00919 174.77619 30 ft 6 kts 161°
2026-05-05 09:11 -37.00964 174.77638 30 ft 8 kts 161°
2026-05-05 09:11 -37.01022 174.77662 30 ft 10 kts 161°
2026-05-05 09:12 -37.01114 174.77701 30 ft 11 kts 161°
2026-05-05 09:12 -37.01166 174.77723 30 ft 12 kts 161°
2026-05-05 09:12 -37.01249 174.77758 30 ft 13 kts 161°
2026-05-05 09:12 -37.01334 174.77794 30 ft 13 kts 161°
2026-05-05 09:13 -37.01400 174.77842 30 ft 10 kts 115°
2026-05-05 09:13 -37.01406 174.77882 30 ft 0 kts 78°
2026-05-05 09:13 -37.01400 174.77911 30 ft 18 kts 77°
2026-05-05 09:13 -37.01297 174.78330 30 ft 86 kts 72°
2026-05-05 09:14 -37.01018 174.79287 30 ft 143 kts 71°
2026-05-05 09:14 -37.00668 174.80593 137 ft 167 kts 71°
2026-05-05 09:14 -37.00306 174.81922 636 ft 166 kts 71°
2026-05-05 09:14 -36.99913 174.83327 999 ft 171 kts 71°
2026-05-05 09:15 -36.99572 174.84721 1514 ft 166 kts 77°
2026-05-05 09:15 -36.99624 174.86198 1711 ft 182 kts 108°
2026-05-05 09:15 -37.00454 174.87465 1839 ft 202 kts 144°
2026-05-05 09:15 -37.01862 174.87940 1944 ft 221 kts 179°
2026-05-05 09:16 -37.03398 174.87344 2109 ft 243 kts 210°
2026-05-05 09:16 -37.04898 174.86365 2640 ft 247 kts 201°
2026-05-05 09:16 -37.06490 174.85581 3072 ft 248 kts 200°
2026-05-05 09:16 -37.08086 174.84759 3763 ft 247 kts 202°
2026-05-05 09:17 -37.09672 174.83881 4213 ft 249 kts 205°
2026-05-05 09:17 -37.11241 174.82947 4860 ft 248 kts 206°
2026-05-05 09:17 -37.12796 174.81972 5447 ft 250 kts 213°
2026-05-05 09:17 -37.14014 174.80449 6079 ft 246 kts 243°
2026-05-05 09:18 -37.14630 174.78418 6543 ft 253 kts 255°
2026-05-05 09:18 -37.15152 174.76241 6815 ft 278 kts 255°
2026-05-05 09:18 -37.15737 174.73907 7420 ft 281 kts 254°
2026-05-05 09:18 -37.16376 174.71567 8137 ft 284 kts 252°
2026-05-05 09:19 -37.17022 174.69218 8730 ft 287 kts 253°
2026-05-05 09:19 -37.17657 174.66841 9284 ft 292 kts 253°
2026-05-05 09:19 -37.18304 174.64428 9854 ft 294 kts 254°
2026-05-05 09:19 -37.18947 174.61988 10367 ft 297 kts 254°
2026-05-05 09:20 -37.19601 174.59517 10694 ft 306 kts 254°
2026-05-05 09:20 -37.20283 174.56921 10838 ft 322 kts 254°
2026-05-05 09:20 -37.20967 174.54315 10990 ft 337 kts 254°
2026-05-05 09:20 -37.21709 174.51477 11189 ft 347 kts 253°
2026-05-05 09:21 -37.22463 174.48611 11678 ft 349 kts 253°
2026-05-05 09:21 -37.23231 174.45682 12223 ft 352 kts 253°
2026-05-05 09:21 -37.23984 174.42760 12705 ft 354 kts 253°
2026-05-05 09:21 -37.24754 174.39824 13144 ft 357 kts 253°
2026-05-05 09:22 -37.25535 174.36854 13681 ft 357 kts 253°
2026-05-05 09:22 -37.26320 174.33881 14102 ft 360 kts 253°
2026-05-05 09:22 -37.27103 174.30882 14477 ft 363 kts 253°
2026-05-05 09:22 -37.27883 174.27865 14925 ft 364 kts 254°
2026-05-05 09:23 -37.28671 174.24835 15401 ft 365 kts 254°
2026-05-05 09:23 -37.29463 174.21791 15874 ft 367 kts 254°
2026-05-05 09:23 -37.30260 174.18731 16343 ft 370 kts 254°
2026-05-05 09:23 -37.31052 174.15663 16803 ft 370 kts 254°
2026-05-05 09:24 -37.31858 174.12566 17211 ft 373 kts 254°
2026-05-05 09:24 -37.32661 174.09464 17684 ft 374 kts 255°
2026-05-05 09:24 -37.33464 174.06345 18053 ft 376 kts 255°
2026-05-05 09:24 -37.34266 174.03220 18535 ft 377 kts 255°
2026-05-05 09:25 -37.35062 174.00110 19003 ft 378 kts 255°
2026-05-05 09:25 -37.35864 173.96949 19305 ft 381 kts 255°
2026-05-05 09:25 -37.36677 173.93771 19637 ft 383 kts 255°
2026-05-05 09:25 -37.37507 173.90567 20044 ft 385 kts 255°
2026-05-05 09:26 -37.38335 173.87356 20329 ft 386 kts 255°
2026-05-05 09:26 -37.39161 173.84147 20549 ft 385 kts 255°
2026-05-05 09:26 -37.39992 173.80934 20591 ft 388 kts 255°
2026-05-05 09:26 -37.40826 173.77678 20839 ft 396 kts 253°
2026-05-05 09:27 -37.41677 173.74402 21295 ft 392 kts 255°
2026-05-05 09:27 -37.42525 173.71131 21551 ft 396 kts 255°
2026-05-05 09:27 -37.43344 173.67812 21935 ft 396 kts 256°
2026-05-05 09:27 -37.44154 173.64517 22095 ft 398 kts 255°
2026-05-05 09:28 -37.45001 173.61175 22338 ft 401 kts 255°
2026-05-05 09:28 -37.45851 173.57822 22694 ft 403 kts 255°
2026-05-05 09:28 -37.46709 173.54450 22964 ft 405 kts 255°
2026-05-05 09:28 -37.47564 173.51062 23370 ft 406 kts 255°
2026-05-05 09:29 -37.48413 173.47722 23846 ft 405 kts 255°
2026-05-05 09:29 -37.49282 173.44293 24076 ft 408 kts 255°
2026-05-05 09:29 -37.50141 173.40860 24383 ft 409 kts 255°
2026-05-05 09:29 -37.50994 173.37447 24727 ft 410 kts 255°
2026-05-05 09:30 -37.51855 173.34022 25033 ft 411 kts 254°
2026-05-05 09:30 -37.52713 173.30590 25363 ft 410 kts 255°
2026-05-05 09:30 -37.53577 173.27132 25472 ft 416 kts 254°
2026-05-05 09:30 -37.54443 173.23657 25748 ft 417 kts 255°
2026-05-05 09:31 -37.55309 173.20187 26139 ft 417 kts 254°
2026-05-05 09:31 -37.56167 173.16738 26416 ft 418 kts 254°
2026-05-05 09:31 -37.57033 173.13252 26755 ft 417 kts 253°
2026-05-05 09:31 -37.57898 173.09765 27115 ft 418 kts 253°
2026-05-05 09:32 -37.58771 173.06280 27417 ft 418 kts 253°
2026-05-05 09:32 -37.59642 173.02758 27583 ft 423 kts 253°
2026-05-05 09:32 -37.60518 172.99219 27942 ft 423 kts 253°
2026-05-05 09:32 -37.61398 172.95673 28285 ft 427 kts 253°
2026-05-05 09:33 -37.62279 172.92091 28737 ft 423 kts 253°
2026-05-05 09:33 -37.63153 172.88540 28915 ft 427 kts 253°
2026-05-05 09:33 -37.64038 172.84939 29197 ft 431 kts 252°
2026-05-05 09:33 -37.64918 172.81330 29586 ft 431 kts 253°
2026-05-05 09:34 -37.65804 172.77702 29770 ft 434 kts 253°
2026-05-05 09:34 -37.66692 172.74052 30150 ft 435 kts 253°
2026-05-05 09:34 -37.67592 172.70390 30386 ft 439 kts 252°
2026-05-05 09:34 -37.68496 172.66702 30796 ft 440 kts 252°
2026-05-05 09:35 -37.69389 172.63046 30977 ft 441 kts 252°
2026-05-05 09:35 -37.71192 172.55654 31388 ft 446 kts 253°
2026-05-05 09:35 -37.72116 172.51843 31834 ft 446 kts 253°
2026-05-05 09:36 -37.73013 172.48136 31951 ft 450 kts 253°
2026-05-05 09:36 -37.73928 172.44333 32212 ft 452 kts 253°
2026-05-05 09:36 -37.74842 172.40535 32449 ft 454 kts 253°
2026-05-05 09:36 -37.75760 172.36701 32634 ft 456 kts 253°
2026-05-05 09:37 -37.76682 172.32892 32815 ft 456 kts 253°
2026-05-05 09:37 -37.77609 172.29037 33020 ft 459 kts 252°
2026-05-05 09:37 -37.78539 172.25181 33282 ft 460 kts 252°
2026-05-05 09:37 -37.79472 172.21317 33472 ft 461 kts 253°
2026-05-05 09:38 -37.80409 172.17416 33712 ft 463 kts 253°
2026-05-05 09:38 -37.81334 172.13523 33989 ft 466 kts 253°
2026-05-05 09:38 -37.82262 172.09584 34373 ft 467 kts 253°
2026-05-05 09:38 -37.83202 172.05629 34438 ft 471 kts 253°
2026-05-05 09:39 -37.85066 171.97723 34444 ft 469 kts 253°
2026-05-05 09:39 -37.86947 171.89813 34447 ft 472 kts 252°
2026-05-05 09:40 -37.88816 171.81912 34437 ft 467 kts 253°
2026-05-05 09:40 -37.90685 171.74010 34430 ft 469 kts 253°
2026-05-05 09:41 -37.92528 171.66118 34428 ft 469 kts 253°
2026-05-05 09:41 -37.94379 171.58188 34432 ft 466 kts 253°
2026-05-05 09:42 -37.96223 171.50262 34421 ft 470 kts 253°
2026-05-05 09:42 -37.98039 171.42382 34430 ft 470 kts 253°
2026-05-05 09:43 -37.99867 171.34448 34434 ft 470 kts 253°
2026-05-05 09:43 -38.01699 171.26511 34431 ft 469 kts 253°
2026-05-05 09:44 -38.03536 171.18562 34424 ft 470 kts 253°
2026-05-05 09:44 -38.05340 171.10642 34433 ft 470 kts 253°
2026-05-05 09:45 -38.07157 171.02665 34419 ft 468 kts 253°
2026-05-05 09:45 -38.08966 170.94741 34417 ft 470 kts 253°
2026-05-05 09:46 -38.10721 170.86778 34416 ft 470 kts 257°
2026-05-05 09:46 -38.11655 170.78563 34425 ft 469 kts 263°
2026-05-05 09:47 -38.12396 170.70339 34414 ft 468 kts 263°
2026-05-05 09:47 -38.13167 170.62086 34419 ft 466 kts 262°
2026-05-05 09:48 -38.13918 170.53877 34416 ft 470 kts 263°
2026-05-05 09:48 -38.14668 170.45665 34415 ft 471 kts 263°
2026-05-05 09:49 -38.15427 170.37431 34415 ft 468 kts 263°
2026-05-05 09:49 -38.16154 170.29184 34406 ft 470 kts 263°
2026-05-05 09:50 -38.16883 170.20956 34412 ft 470 kts 263°
2026-05-05 09:50 -38.17615 170.12721 34403 ft 467 kts 263°
2026-05-05 09:51 -38.18334 170.04484 34407 ft 470 kts 263°
2026-05-05 09:51 -38.19048 169.96225 34397 ft 468 kts 263°
2026-05-05 09:52 -38.19739 169.87991 34399 ft 469 kts 263°
2026-05-05 09:52 -38.20446 169.79760 34405 ft 469 kts 263°
2026-05-05 09:53 -38.21148 169.71497 34393 ft 469 kts 263°
2026-05-05 09:53 -38.21826 169.63258 34396 ft 469 kts 263°
2026-05-05 09:54 -38.22503 169.55078 34394 ft 470 kts 263°
2026-05-05 09:54 -38.23194 169.46801 34390 ft 469 kts 264°
2026-05-05 09:55 -38.23855 169.38565 34392 ft 468 kts 264°
2026-05-05 09:55 -38.24529 169.30324 34393 ft 468 kts 263°
2026-05-05 09:56 -38.25186 169.22089 34384 ft 467 kts 263°
2026-05-05 09:56 -38.25731 169.15261 34381 ft 467 kts 263°
2026-05-05 09:57 -38.26388 169.07012 34386 ft 468 kts 264°
2026-05-05 09:57 -38.27027 168.98745 34381 ft 467 kts 264°
2026-05-05 09:58 -38.27761 168.89181 34384 ft 470 kts 264°
2026-05-05 09:58 -38.28293 168.82267 34382 ft 468 kts 264°
2026-05-05 09:59 -38.28912 168.74080 34385 ft 466 kts 264°
2026-05-05 09:59 -38.29528 168.65844 34377 ft 466 kts 264°
2026-05-05 10:00 -38.30126 168.57718 34384 ft 461 kts 264°
2026-05-05 10:00 -38.30726 168.49537 34375 ft 462 kts 263°
2026-05-05 10:01 -38.31322 168.41384 34378 ft 464 kts 264°
2026-05-05 10:01 -38.31919 168.33189 34376 ft 465 kts 264°
2026-05-05 10:02 -38.32500 168.25019 34366 ft 457 kts 263°
2026-05-05 10:02 -38.33076 168.16924 34366 ft 460 kts 264°
2026-05-05 10:03 -38.33655 168.08800 34363 ft 459 kts 264°
2026-05-05 10:03 -38.34217 168.00712 34363 ft 463 kts 264°
2026-05-05 10:04 -38.34783 167.92551 34358 ft 458 kts 264°
2026-05-05 10:04 -38.35320 167.84522 34364 ft 457 kts 264°
2026-05-05 10:05 -38.35860 167.76426 34360 ft 460 kts 264°
2026-05-05 10:05 -38.36414 167.68313 34366 ft 458 kts 264°
2026-05-05 10:06 -38.36947 167.60230 34354 ft 460 kts 264°
2026-05-05 10:06 -38.37476 167.52116 34360 ft 457 kts 264°
2026-05-05 10:07 -38.37995 167.44071 34350 ft 460 kts 264°
2026-05-05 10:07 -38.38514 167.35972 34348 ft 459 kts 264°
2026-05-05 10:08 -38.39020 167.27856 34348 ft 459 kts 265°
2026-05-05 10:08 -38.39510 167.19770 34342 ft 457 kts 265°
2026-05-05 10:09 -38.40027 167.11672 34338 ft 457 kts 265°
2026-05-05 10:09 -38.40521 167.03629 34342 ft 458 kts 265°
2026-05-05 10:10 -38.41023 166.95524 34340 ft 459 kts 265°
2026-05-05 10:10 -38.41514 166.87418 34331 ft 458 kts 265°
2026-05-05 10:11 -38.41974 166.79386 34330 ft 456 kts 265°
2026-05-05 10:11 -38.42442 166.71296 34325 ft 457 kts 265°
2026-05-05 10:12 -38.42912 166.63230 34329 ft 458 kts 265°
2026-05-05 10:12 -38.43372 166.55120 34329 ft 457 kts 265°
2026-05-05 10:13 -38.43829 166.47026 34315 ft 457 kts 265°
2026-05-05 10:13 -38.44273 166.39016 34320 ft 455 kts 266°
2026-05-05 10:14 -38.44729 166.30944 34315 ft 455 kts 266°
2026-05-05 10:14 -38.45162 166.22879 34320 ft 457 kts 265°
2026-05-05 10:15 -38.45589 166.14802 34308 ft 457 kts 265°
2026-05-05 10:15 -38.46013 166.06811 34305 ft 452 kts 266°
2026-05-05 10:16 -38.46426 165.98809 34302 ft 450 kts 266°
2026-05-05 10:16 -38.46825 165.90827 34306 ft 451 kts 266°
2026-05-05 10:17 -38.47239 165.82826 34298 ft 452 kts 266°
2026-05-05 10:17 -38.47649 165.74862 34294 ft 448 kts 266°
2026-05-05 10:18 -38.48044 165.66887 34292 ft 449 kts 266°
2026-05-05 10:18 -38.48422 165.59016 34285 ft 450 kts 266°
2026-05-05 10:19 -38.48800 165.51021 34291 ft 449 kts 266°
2026-05-05 10:19 -38.49180 165.43076 34276 ft 450 kts 266°
2026-05-05 10:20 -38.49559 165.35080 34273 ft 450 kts 267°
2026-05-05 10:20 -38.49913 165.27122 34279 ft 449 kts 267°
2026-05-05 10:21 -38.50285 165.19141 34272 ft 450 kts 266°
2026-05-05 10:21 -38.50634 165.11192 34271 ft 450 kts 267°
2026-05-05 10:22 -38.50996 165.03222 34267 ft 448 kts 267°
2026-05-05 10:22 -38.51343 164.95244 34271 ft 448 kts 267°
2026-05-05 10:23 -38.51670 164.87307 34258 ft 446 kts 267°
2026-05-05 10:23 -38.52003 164.79473 34257 ft 449 kts 267°
2026-05-05 10:24 -38.52327 164.71495 34252 ft 450 kts 267°
2026-05-05 10:24 -38.52646 164.63616 34250 ft 441 kts 268°
2026-05-05 10:25 -38.52962 164.55783 34249 ft 443 kts 268°
2026-05-05 10:25 -38.53272 164.47922 34243 ft 444 kts 268°
2026-05-05 10:26 -38.53583 164.40028 34250 ft 447 kts 268°
2026-05-05 10:26 -38.53883 164.32210 34235 ft 442 kts 269°
2026-05-05 10:27 -38.54160 164.24343 34238 ft 439 kts 269°
2026-05-05 10:27 -38.54439 164.16563 34235 ft 441 kts 269°
2026-05-05 10:28 -38.54729 164.08736 34227 ft 441 kts 269°
2026-05-05 10:28 -38.55008 164.00932 34229 ft 442 kts 269°
2026-05-05 10:29 -38.55267 163.93116 34214 ft 436 kts 269°
2026-05-05 10:29 -38.55535 163.85361 34224 ft 437 kts 269°
2026-05-05 10:30 -38.55799 163.77603 34215 ft 437 kts 269°
2026-05-05 10:30 -38.56051 163.69826 34205 ft 438 kts 269°
2026-05-05 10:31 -38.56307 163.62056 34198 ft 435 kts 270°
2026-05-05 10:31 -38.56538 163.54335 34207 ft 434 kts 270°
2026-05-05 10:32 -38.56774 163.46602 34206 ft 436 kts 270°
2026-05-05 10:32 -38.56999 163.38860 34187 ft 437 kts 270°
2026-05-05 10:33 -38.57232 163.31172 34181 ft 434 kts 270°
2026-05-05 10:33 -38.57449 163.23479 34188 ft 436 kts 270°
2026-05-05 10:34 -38.57680 163.15725 34193 ft 436 kts 271°
2026-05-05 10:34 -38.57896 163.07973 34177 ft 437 kts 271°
2026-05-05 10:35 -38.58096 163.00201 34170 ft 436 kts 272°
2026-05-05 10:35 -38.58209 162.92481 34165 ft 437 kts 271°
2026-05-05 10:36 -38.58444 162.84710 34154 ft 436 kts 271°
2026-05-05 10:36 -38.58644 162.77013 34171 ft 434 kts 271°
2026-05-05 10:37 -38.58836 162.69279 34168 ft 435 kts 271°
2026-05-05 10:37 -38.59023 162.61547 34148 ft 435 kts 271°
2026-05-05 10:38 -38.59195 162.53802 34162 ft 433 kts 272°
2026-05-05 10:38 -38.59343 162.46086 34154 ft 438 kts 272°
2026-05-05 10:39 -38.59523 162.38383 34143 ft 433 kts 272°
2026-05-05 10:39 -38.59681 162.30675 34138 ft 431 kts 271°
2026-05-05 10:40 -38.59840 162.22989 34139 ft 434 kts 272°
2026-05-05 10:40 -38.59986 162.15354 34137 ft 428 kts 273°
2026-05-05 10:41 -38.60127 162.07723 34131 ft 429 kts 272°
2026-05-05 10:41 -38.60257 162.00061 34132 ft 431 kts 272°
2026-05-05 10:42 -38.60458 161.88669 34130 ft 428 kts 272°
2026-05-05 10:43 -38.60578 161.80954 34124 ft 431 kts 272°
2026-05-05 10:43 -38.60697 161.73359 34119 ft 432 kts 272°
2026-05-05 10:44 -38.60812 161.65678 34115 ft 431 kts 273°
2026-05-05 10:44 -38.60916 161.58014 34116 ft 433 kts 273°
2026-05-05 10:45 -38.61009 161.51601 34109 ft 438 kts 274°
2026-05-05 10:45 -38.61108 161.43865 34109 ft 433 kts 274°
2026-05-05 10:46 -38.61201 161.36073 34107 ft 436 kts 274°
2026-05-05 10:46 -38.61296 161.28366 34103 ft 435 kts 274°
2026-05-05 10:47 -38.61380 161.20615 34112 ft 436 kts 274°
2026-05-05 10:47 -38.61455 161.12884 34089 ft 433 kts 274°
2026-05-05 10:48 -38.61538 161.05154 34095 ft 434 kts 274°
2026-05-05 10:48 -38.61610 160.97415 34076 ft 432 kts 275°
2026-05-05 10:49 -38.61675 160.89709 34100 ft 431 kts 275°
2026-05-05 10:49 -38.61748 160.81946 34090 ft 436 kts 275°
2026-05-05 10:50 -38.61793 160.74179 34084 ft 439 kts 275°
2026-05-05 10:50 -38.61836 160.66381 34083 ft 438 kts 275°
2026-05-05 10:51 -38.61881 160.58596 34073 ft 438 kts 275°
2026-05-05 10:51 -38.61919 160.50831 34081 ft 444 kts 275°
2026-05-05 10:52 -38.61957 160.42932 34073 ft 445 kts 275°
2026-05-05 10:52 -38.61982 160.35071 34074 ft 441 kts 275°
2026-05-05 10:53 -38.62006 160.27205 34067 ft 442 kts 275°
2026-05-05 10:53 -38.62026 160.19326 34087 ft 440 kts 275°
2026-05-05 10:54 -38.62044 160.11478 34075 ft 442 kts 275°
2026-05-05 10:54 -38.62050 160.03624 34060 ft 443 kts 275°
2026-05-05 10:55 -38.62059 159.95755 34059 ft 441 kts 275°
2026-05-05 10:55 -38.62051 159.87892 34060 ft 443 kts 275°
2026-05-05 10:56 -38.62041 159.80078 34060 ft 438 kts 275°
2026-05-05 10:56 -38.62020 159.72307 34068 ft 438 kts 275°
2026-05-05 10:57 -38.62014 159.64493 34061 ft 439 kts 275°
2026-05-05 10:57 -38.61997 159.56616 34052 ft 439 kts 275°
2026-05-05 10:58 -38.61964 159.48849 34046 ft 437 kts 275°
2026-05-05 10:58 -38.61927 159.41065 34074 ft 438 kts 275°
2026-05-05 10:59 -38.61885 159.33276 34046 ft 441 kts 275°
2026-05-05 10:59 -38.61854 159.25451 34054 ft 439 kts 275°
2026-05-05 11:00 -38.61813 159.17627 34069 ft 440 kts 275°
2026-05-05 11:00 -38.61738 159.09847 34056 ft 440 kts 275°
2026-05-05 11:01 -38.61686 159.02037 34055 ft 438 kts 275°
2026-05-05 11:01 -38.61625 158.94243 34054 ft 438 kts 275°
2026-05-05 11:02 -38.61561 158.86435 34055 ft 441 kts 275°
2026-05-05 11:02 -38.61485 158.78727 34062 ft 435 kts 275°
2026-05-05 11:03 -38.61403 158.70931 34050 ft 438 kts 275°
2026-05-05 11:03 -38.61321 158.63136 34063 ft 438 kts 275°
2026-05-05 11:04 -38.61232 158.55388 34057 ft 439 kts 275°
2026-05-05 11:04 -38.61128 158.47599 34053 ft 434 kts 275°
2026-05-05 11:05 -38.61027 158.39834 34063 ft 439 kts 275°
2026-05-05 11:05 -38.60937 158.32033 34068 ft 437 kts 275°
2026-05-05 11:06 -38.60811 158.24207 34072 ft 442 kts 275°
2026-05-05 11:06 -38.60695 158.16407 34063 ft 437 kts 275°
2026-05-05 11:07 -38.60577 158.08641 34057 ft 437 kts 275°
2026-05-05 11:07 -38.60452 158.00857 34086 ft 440 kts 275°
2026-05-05 11:08 -38.60317 157.93118 34071 ft 436 kts 275°
2026-05-05 11:08 -38.60183 157.85385 34081 ft 435 kts 275°
2026-05-05 11:09 -38.60038 157.77640 34083 ft 438 kts 275°
2026-05-05 11:09 -38.59914 157.69889 34081 ft 435 kts 275°
2026-05-05 11:10 -38.59771 157.62164 34086 ft 437 kts 275°
2026-05-05 11:10 -38.59617 157.54416 34082 ft 433 kts 275°
2026-05-05 11:11 -38.59366 157.46711 34083 ft 435 kts 275°
2026-05-05 11:11 -38.59237 157.39013 34085 ft 435 kts 275°
2026-05-05 11:12 -38.59081 157.31240 34089 ft 435 kts 275°
2026-05-05 11:12 -38.58912 157.23528 34085 ft 436 kts 275°
2026-05-05 11:13 -38.58733 157.15805 34093 ft 434 kts 275°
2026-05-05 11:13 -38.58547 157.08090 34093 ft 436 kts 275°
2026-05-05 11:14 -38.58361 157.00392 34109 ft 437 kts 275°
2026-05-05 11:14 -38.58166 156.92584 34089 ft 439 kts 274°
2026-05-05 11:15 -38.57971 156.84864 34079 ft 435 kts 275°
2026-05-05 11:15 -38.57753 156.77136 34146 ft 438 kts 275°
2026-05-05 11:15 -38.57643 156.73241 34382 ft 439 kts 275°
2026-05-05 11:16 -38.57535 156.69330 34614 ft 439 kts 275°
2026-05-05 11:16 -38.57428 156.65436 34796 ft 441 kts 275°
2026-05-05 11:16 -38.57315 156.61528 34972 ft 439 kts 275°
2026-05-05 11:16 -38.57204 156.57632 35107 ft 440 kts 275°
2026-05-05 11:17 -38.57088 156.53736 35313 ft 440 kts 275°
2026-05-05 11:17 -38.56965 156.49819 35587 ft 441 kts 275°
2026-05-05 11:17 -38.56851 156.45902 35972 ft 441 kts 275°
2026-05-05 11:17 -38.56730 156.41975 36087 ft 443 kts 275°
2026-05-05 11:18 -38.56616 156.38036 36097 ft 442 kts 275°
2026-05-05 11:18 -38.56378 156.30158 36098 ft 443 kts 275°
2026-05-05 11:19 -38.56113 156.22282 36095 ft 446 kts 275°
2026-05-05 11:19 -38.55860 156.14386 36091 ft 443 kts 275°
2026-05-05 11:20 -38.55610 156.06507 36090 ft 443 kts 275°
2026-05-05 11:20 -38.55357 155.98667 36083 ft 444 kts 275°
2026-05-05 11:21 -38.55072 155.90757 36097 ft 446 kts 276°
2026-05-05 11:21 -38.54796 155.82882 36100 ft 440 kts 275°
2026-05-05 11:22 -38.54531 155.75116 36038 ft 437 kts 275°
2026-05-05 11:22 -38.54251 155.67318 36089 ft 442 kts 275°
2026-05-05 11:23 -38.53949 155.59445 36089 ft 442 kts 275°
2026-05-05 11:23 -38.53654 155.51563 36085 ft 443 kts 275°
2026-05-05 11:24 -38.53358 155.43684 36088 ft 443 kts 275°
2026-05-05 11:24 -38.53046 155.35828 36075 ft 443 kts 275°
2026-05-05 11:25 -38.52728 155.27995 36063 ft 441 kts 275°
2026-05-05 11:25 -38.52420 155.20182 36064 ft 442 kts 275°
2026-05-05 11:26 -38.52095 155.12431 36039 ft 439 kts 276°
2026-05-05 11:26 -38.51780 155.04656 36039 ft 438 kts 275°
2026-05-05 11:27 -38.51444 154.96829 36089 ft 444 kts 275°
2026-05-05 11:27 -38.51103 154.88914 36105 ft 446 kts 275°
2026-05-05 11:28 -38.50766 154.81034 36098 ft 446 kts 275°
2026-05-05 11:28 -38.50416 154.73106 36110 ft 448 kts 275°
2026-05-05 11:29 -38.50065 154.65157 36152 ft 450 kts 274°
2026-05-05 11:29 -38.49711 154.57176 36129 ft 449 kts 275°
2026-05-05 11:30 -38.49324 154.49252 36080 ft 446 kts 275°
2026-05-05 11:30 -38.48954 154.41349 36093 ft 449 kts 275°
2026-05-05 11:31 -38.48636 154.34739 36091 ft 448 kts 275°
2026-05-05 11:31 -38.48252 154.26820 36086 ft 444 kts 275°
2026-05-05 11:32 -38.47866 154.18912 36088 ft 445 kts 275°
2026-05-05 11:32 -38.47483 154.11010 36103 ft 450 kts 276°
2026-05-05 11:33 -38.47081 154.03026 36115 ft 449 kts 275°
2026-05-05 11:33 -38.46665 153.95075 36095 ft 450 kts 275°
2026-05-05 11:34 -38.46256 153.87137 36091 ft 448 kts 275°
2026-05-05 11:34 -38.45834 153.79259 36067 ft 445 kts 275°
2026-05-05 11:35 -38.45417 153.71386 36066 ft 445 kts 275°
2026-05-05 11:35 -38.44994 153.63494 36109 ft 449 kts 275°
2026-05-05 11:36 -38.44566 153.55564 36105 ft 451 kts 275°
2026-05-05 11:36 -38.44123 153.47561 36115 ft 451 kts 275°
2026-05-05 11:37 -38.43675 153.39548 36109 ft 452 kts 274°
2026-05-05 11:37 -38.43231 153.31546 36110 ft 453 kts 275°
2026-05-05 11:38 -38.42755 153.23584 36078 ft 448 kts 275°
2026-05-05 11:38 -38.42297 153.15688 36120 ft 448 kts 275°
2026-05-05 11:39 -38.41843 153.07694 36117 ft 455 kts 275°
2026-05-05 11:39 -38.41384 152.99655 36125 ft 455 kts 275°
2026-05-05 11:40 -38.40898 152.91628 36125 ft 452 kts 275°
2026-05-05 11:40 -38.40412 152.83614 36123 ft 454 kts 275°
2026-05-05 11:41 -38.39925 152.75570 36142 ft 456 kts 275°
2026-05-05 11:41 -38.39412 152.67493 36180 ft 463 kts 275°
2026-05-05 11:42 -38.38894 152.59389 36138 ft 454 kts 275°
2026-05-05 11:42 -38.38391 152.51349 36138 ft 457 kts 275°
2026-05-05 11:43 -38.37868 152.43262 36146 ft 458 kts 275°
2026-05-05 11:43 -38.37347 152.35192 36134 ft 459 kts 275°
2026-05-05 11:44 -38.36821 152.27102 36143 ft 457 kts 275°
2026-05-05 11:44 -38.36283 152.19058 36118 ft 454 kts 275°
2026-05-05 11:45 -38.35741 152.11052 36095 ft 452 kts 275°
2026-05-05 11:45 -38.35215 152.03175 36145 ft 452 kts 275°
2026-05-05 11:46 -38.34668 151.95111 36144 ft 459 kts 275°
2026-05-05 11:46 -38.34112 151.87012 36147 ft 458 kts 275°
2026-05-05 11:47 -38.33551 151.78927 36148 ft 457 kts 275°
2026-05-05 11:47 -38.32992 151.70855 36153 ft 457 kts 275°
2026-05-05 11:48 -38.32115 151.58621 36214 ft 464 kts 275°
2026-05-05 11:48 -38.31526 151.50429 36167 ft 461 kts 275°
2026-05-05 11:49 -38.30940 151.42341 36178 ft 459 kts 275°
2026-05-05 11:49 -38.30341 151.34263 36164 ft 458 kts 275°
2026-05-05 11:50 -38.29736 151.26169 36161 ft 460 kts 275°
2026-05-05 11:50 -38.29139 151.18078 36175 ft 461 kts 275°
2026-05-05 11:51 -38.28519 151.09977 36184 ft 458 kts 275°
2026-05-05 11:51 -38.27903 151.01983 36142 ft 454 kts 275°
2026-05-05 11:52 -38.27288 150.93989 36168 ft 456 kts 275°
2026-05-05 11:52 -38.26672 150.85888 36179 ft 459 kts 275°
2026-05-05 11:53 -38.26036 150.77784 36172 ft 460 kts 276°
2026-05-05 11:53 -38.25399 150.69676 36182 ft 461 kts 275°
2026-05-05 11:54 -38.24740 150.61532 36177 ft 460 kts 275°
2026-05-05 11:54 -38.24109 150.53477 36156 ft 458 kts 276°
2026-05-05 11:55 -38.23473 150.45424 36126 ft 454 kts 275°
2026-05-05 11:55 -38.22811 150.37496 36192 ft 458 kts 276°
2026-05-05 11:56 -38.22698 150.36130 36187 ft 460 kts 276°